Nederland, TX

11:04 AM CST on February 27, 2017 (GMT -0600)
Southeast Texas Regional

Weather History for KBPT - December, 2012

Change the Weather History Date:

Friday, December 14, 2012

  Actual Average Record
Temperature  
Mean Temperature 55 °F 54 °F  
Max Temperature 64 °F 64 °F 80 °F (1924)
Min Temperature 46 °F 45 °F 22 °F (1901)
Degree Days  
Heating Degree Days 10 11  
Month to date heating degree days 78 143  
Since 1 July heating degree days 271 338  
Cooling Degree Days 0 1  
Month to date cooling degree days 42 14  
Year to date cooling degree days 3177 2869  
Growing Degree Days 7 (Base 50)    
Moisture  
Dew Point 51 °F    
Average Humidity 74    
Maximum Humidity 97    
Minimum Humidity 50    
Precipitation  
Precipitation 0.00 in 0.17 in 2.21 in (1913)
Month to date precipitation 3.99 2.28  
Year to date precipitation 61.35 57.46  
Snow  
Snow 0.00 in 0.00 in 0.00 in ()
Month to date snowfall 0.0 0.0  
Since 1 July snowfall 0.0 0.0  
Snow Depth 0.00 in    
Sea Level Pressure  
Sea Level Pressure 30.12 in    
Wind  
Wind Speed 12 mph (ESE)    
Max Wind Speed 21 mph    
Max Gust Speed 25 mph    
Visibility 9 miles    
Events      
T = Trace of Precipitation, MM = Missing Value Source: NWS Daily Summary

Daily Weather History Graph

Daily Weather History Graph

Search for Another Location

Airport or City:

Trip Planner

Search our weather history database for the weather conditions in past years. The results will help you decide how hot, cold, wet, or windy it might be!

Date:

Astronomy

Dec. 14, 2012 Rise Set
Actual Time 7:03 AM CST 5:18 PM CST
Civil Twilight 6:37 AM CST 5:44 PM CST
Nautical Twilight 6:07 AM CST 6:14 PM CST
Astronomical Twilight 5:38 AM CST 6:43 PM CST
Moon 8:12 AM CST (12/14) 7:06 PM CST (12/14)
Length of Visible Light 11h 06m
Length of Day
10h 14m
Waxing Crescent, 3% of the Moon is Illuminated
Dec 14
Waxing Crescent
Dec 19
First Quarter
Dec 28
Full
Jan 4
Last Quarter
Jan 11
New

Hourly Weather History & Observations

Time (CST) Temp. Dew Point Humidity Pressure Visibility Wind Dir Wind Speed Gust Speed Precip Events Conditions
12:53 AM 46.9 °F 37.9 °F 71% 30.25 in 10.0 mi ENE 3.5 mph - N/A   Partly Cloudy
1:53 AM 51.1 °F 39.0 °F 63% 30.21 in 10.0 mi East 12.7 mph - N/A   Mostly Cloudy
2:53 AM 53.1 °F 35.1 °F 50% 30.22 in 10.0 mi East 6.9 mph - 0.01 in   Overcast
3:53 AM 53.1 °F 36.0 °F 52% 30.22 in 10.0 mi East 5.8 mph - N/A   Overcast
4:53 AM 53.1 °F 37.0 °F 55% 30.21 in 10.0 mi East 9.2 mph - N/A   Overcast
5:53 AM 53.1 °F 39.0 °F 59% 30.21 in 10.0 mi East 8.1 mph - N/A   Overcast
6:53 AM 54.0 °F 41.0 °F 62% 30.22 in 10.0 mi East 9.2 mph - N/A   Overcast
7:53 AM 54.0 °F 45.0 °F 72% 30.22 in 10.0 mi East 9.2 mph - N/A   Overcast
8:53 AM 55.0 °F 45.0 °F 69% 30.22 in 10.0 mi East 10.4 mph - N/A   Overcast
9:53 AM 59.0 °F 46.0 °F 62% 30.24 in 10.0 mi East 10.4 mph - N/A   Mostly Cloudy
10:42 AM 60.8 °F 48.2 °F 63% 30.22 in 10.0 mi East 10.4 mph - N/A   Mostly Cloudy
10:53 AM 60.1 °F 48.9 °F 67% 30.21 in 10.0 mi East 11.5 mph - N/A   Mostly Cloudy
11:53 AM 61.0 °F 50.0 °F 67% 30.17 in 8.0 mi East 16.1 mph - N/A   Overcast
12:53 PM 61.0 °F 53.1 °F 75% 30.15 in 10.0 mi ESE 13.8 mph - N/A   Overcast
1:53 PM 61.0 °F 55.0 °F 81% 30.09 in 10.0 mi ESE 20.7 mph 24.2 mph N/A   Overcast
2:53 PM 63.0 °F 55.9 °F 78% 30.07 in 10.0 mi ESE 15.0 mph - N/A   Overcast
3:53 PM 62.1 °F 57.0 °F 84% 30.06 in 6.0 mi ESE 15.0 mph - N/A   Haze
4:53 PM 61.0 °F 57.0 °F 87% 30.03 in 9.0 mi ESE 17.3 mph - N/A   Overcast
5:30 PM 60.8 °F 57.2 °F 88% 30.03 in 9.0 mi ESE 13.8 mph - N/A   Overcast
5:53 PM 61.0 °F 57.9 °F 90% 30.04 in 9.0 mi ESE 12.7 mph - N/A   Overcast
6:05 PM 60.8 °F 57.2 °F 88% 30.03 in 5.0 mi ESE 15.0 mph 21.9 mph N/A   Overcast
6:40 PM 60.8 °F 59.0 °F 94% 30.02 in 5.0 mi ESE 12.7 mph - N/A   Mostly Cloudy
6:53 PM 61.0 °F 59.0 °F 93% 30.03 in 5.0 mi ESE 12.7 mph - N/A   Scattered Clouds
7:53 PM 62.1 °F 60.1 °F 93% 30.02 in 8.0 mi ESE 13.8 mph 20.7 mph N/A   Mostly Cloudy
8:53 PM 63.0 °F 61.0 °F 93% 30.00 in 10.0 mi ESE 15.0 mph - N/A   Overcast
9:53 PM 64.0 °F 61.0 °F 90% 30.02 in 10.0 mi ESE 11.5 mph - N/A   Overcast
10:25 PM 64.4 °F 60.8 °F 88% 30.02 in 10.0 mi ESE 10.4 mph - N/A   Overcast
10:53 PM 64.0 °F 61.0 °F 90% 30.00 in 10.0 mi ESE 12.7 mph - N/A   Overcast
11:53 PM 64.0 °F 61.0 °F 90% 29.99 in 10.0 mi ESE 8.1 mph - N/A   Overcast